This is the latest recevied weather packets stored in our database for station/object KM4CBK. If no packets are shown the sender has not sent any weather packets the latest 10 day(s).
| Time | Temp. | Humidity | Pressure | Rain* | Wind** | Luminosity | Snow |
|---|---|---|---|---|---|---|---|
| 1777662444 | 18.33° C | 75% | 1012.4 hPa | 0 mm | - | 149 W/m² | - |
| 1777662140 | 18.33° C | 75% | 1012.3 hPa | 0 mm | - | 154 W/m² | - |
| 1777661836 | 18.89° C | 74% | 1012.7 hPa | 0 mm | - | 148 W/m² | - |
| 1777661532 | 18.33° C | 77% | 1012.6 hPa | 0 mm | - | 158 W/m² | - |
| 1777661228 | 18.89° C | 76% | 1012.9 hPa | 0 mm | - | 138 W/m² | - |
| 1777660923 | 18.33° C | 77% | 1012.9 hPa | 0 mm | - | 136 W/m² | - |
| 1777660619 | 18.33° C | 76% | 1013.2 hPa | 0 mm | - | 158 W/m² | - |
| 1777660316 | 18.33° C | 76% | 1013.3 hPa | 0 mm | - | 152 W/m² | - |
| 1777660013 | 18.33° C | 77% | 1013.2 hPa | 0 mm | - | 157 W/m² | - |
| 1777659709 | 17.78° C | 77% | 1013.1 hPa | 0 mm | - | 133 W/m² | - |
| 1777659407 | 17.78° C | 78% | 1013.5 hPa | 0 mm | - | 120 W/m² | - |
| 1777659104 | 18.33° C | 79% | 1013.7 hPa | 0 mm | - | 121 W/m² | - |
| 1777658802 | 17.78° C | 77% | 1013.3 hPa | 0 mm | - | 131 W/m² | - |
| 1777658497 | 18.33° C | 78% | 1013.9 hPa | 0 mm | - | 125 W/m² | - |
| 1777658194 | 17.78° C | 78% | 1013.7 hPa | 0 mm | - | 104 W/m² | - |
| 1777657892 | 17.78° C | 77% | 1013.8 hPa | 0 mm | - | 95 W/m² | - |
| 1777657588 | 17.78° C | 76% | 1014.1 hPa | 0 mm | - | 103 W/m² | - |
| 1777657286 | 18.33° C | 77% | 1013.8 hPa | 0 mm | - | 120 W/m² | - |
| 1777656983 | 18.33° C | 78% | 1013.8 hPa | 0 mm | - | 138 W/m² | - |
| 1777656680 | 18.33° C | 75% | 1013.6 hPa | 0 mm | - | 264 W/m² | - |
| 1777656376 | 17.78° C | 77% | 1013.8 hPa | 0 mm | - | 149 W/m² | - |
| 1777656071 | 17.78° C | 78% | 1013.6 hPa | 0 mm | - | 175 W/m² | - |
| 1777655767 | 17.78° C | 83% | 1013.5 hPa | 0 mm | - | 196 W/m² | - |
| 1777655464 | 17.22° C | 83% | 1013.5 hPa | 0 mm | - | 148 W/m² | - |
| 1777655161 | 17.22° C | 82% | 1013.3 hPa | 0 mm | - | 131 W/m² | - |
* Rain latest hour (hover to see other rain measurements)
** Current wind speed in m/s (hover to see current wind gust speed)